Regional Weather Roundup
Issued by NWS Grand Forks, ND

Home | Current Version | Previous Version | Text Only | Print | Product List | Glossary Off
Versions: 1 2 3 4 5 6 7 8 9 10 11 12 13 14 15 16 17 18 19 20 21 22 23 24 25 26 27 28 29 30 31 32 33 34 35 36 37 38 39 40 41 42 43 44 45 46 47 48 49 50

000
ASUS43 KFGF 300310
RWRFGF
PRAIRIE TO PINES  WEATHER ROUNDUP
NATIONAL WEATHER SERVICE EASTERN NORTH DAKOTA/GRAND FORKS ND
1000 PM CDT WED MAR 29 2017

 **SATELLITE DATA USED TO AUGMENT SKY COVER AT AUTOMATED STATIONS**
 *****  WEATHER ACROSS EASTERN NORTH DAKOTA  *****

CITY           SKY/WX    TMP DP  RH WIND       PRES   REMARKS
GRAND FORKS    FAIR      49  38  65 S18       29.97F
GRAND FRKS AFB FAIR      48  37  65 S22G28    29.96F
DEVILS LAKE    MOCLDY    50  34  54 S15       29.91F
FARGO          FAIR      47  38  71 S18G28    30.05S
WAHPETON ARPT  FAIR      43  34  70 S12       30.10S
$$

 ***** WEATHER ACROSS CENTRAL AND WESTERN NORTH DAKOTA  *****

CITY           SKY/WX    TMP DP  RH WIND       PRES   REMARKS
BISMARCK       CLOUDY    57  36  45 S12       29.90F
MINOT          FAIR      45  42  89 S5        29.85S
JAMESTOWN      FAIR      46  36  68 S15       29.96S
MINOT AFB      CLEAR     42  42  99 S6        29.84S
GARRISON         N/A     49  38  65 S6        29.86R
WILLISTON      FAIR      44  32  62 W8        29.84F
DICKINSON      FAIR      42  29  59 W3        29.85R
HETTINGER      MOCLDY    48  37  65 S12       29.91R
$$

 *****  OTHER AIRPORT OBSERVATIONS IN OUR AREA  *****

CITY           SKY/WX    TMP DP  RH WIND       PRES   REMARKS
WALHALLA       NOT AVBL
GRAFTON AIRPOR FAIR      46  43  87 S14       29.97S
VALLEY CITY AR FAIR      46  36  66 S20       30.00F
CANDO          NOT AVBL
CAVALIER APRT    N/A     50  41  71 S15       29.92F
GWINNER        CLEAR     43  36  75 MISG      30.05F
SHEYENNE NWR     N/A     45  36  71 S15       29.95S
ROLLA          MOCLDY    45  45 100 S7        29.89F
 ***** THE ABOVE OBSERVATIONS ARE NON NWS ARE NOT QUALITY
       CONTROLLED AND MAY MIS-REPORT RAIN FOR SNOW...
$$

  *****  WEATHER ACROSS NORTHERN MINNESOTA  *****

CITY           SKY/WX    TMP DP  RH WIND       PRES   REMARKS
FLAG ISLAND    FAIR      37  30  75 S12       30.02S
WARROAD        FAIR      48  36  61 S14       30.02S
ROSEAU         FAIR      46  37  71 S10       30.01S
HALLOCK        MOCLDY    48  41  76 S18       29.96S
THF RVR FALLS    N/A    N/A N/A N/A MISG        N/A
BAUDETTE       FAIR      45  32  60 SE10      30.05S
WASKISH        FAIR      43  34  70 SE6       30.08F
CROOKSTON      FAIR      46  37  71 S18       30.03S
GREENBUSH NDAW   N/A     46  37  71 S12         N/A
$$
  *****  WEATHER ACROSS CENTRAL AND WEST MINNESOTA  *****

CITY           SKY/WX    TMP DP  RH WIND       PRES   REMARKS
FOSSTON        FAIR      43  30  61 S9        30.07S
BEMIDJI        FAIR      41  32  69 SE8       30.09S
PARK RAPIDS    FAIR      41  30  65 SE8       30.09F
ELBOW LAKE     FAIR      35  33  94 S7        30.11S
WADENA         FAIR      37  32  81 CALM      30.10F
DETROIT LAKES  FAIR      43  34  70 S6        30.10S
MOORHEAD       FAIR      45  37  76 S14       30.08S
FERGUS FALLS   FAIR      39  34  81 S8        30.13S
MORRIS MN      MOCLDY    39  37  93 S6        30.10S
STAPLES        FAIR      39  32  75 CALM      30.11F
$$
  *****  WEATHER ELSEWHERE ACROSS MINNESOTA  *****

CITY           SKY/WX    TMP DP  RH WIND       PRES   REMARKS
DULUTH         FAIR      31  28  89 E10       30.17F WCI  22
INTRNTL FALLS  FAIR      40  29  64 SE8       30.11S
ELY            FAIR      30  23  74 SE5       30.18F
CLOQUET        CLOUDY    32  28  86 E7        30.17F
WHEATON        FAIR      39  36  87 SE5       30.12F
BRAINERD       FAIR      39  32  76 E5        30.12F
HIBBING        FAIR      31  26  82 SE3       30.17S
ALEXANDRIA     FAIR      40  35  83 S5        30.11F
SAINT CLOUD    FAIR      43  37  79 SE5       30.11F
MINNEAPOLIS    CLOUDY    43  37  79 E15       30.11F
$$

  *****  WEATHER ACROSS SOUTH DAKOTA  *****

CITY           SKY/WX    TMP DP  RH WIND       PRES   REMARKS
SIOUX FALLS    LGT RAIN  40  39  97 E15       30.02S
BROOKINGS      CLOUDY    40  35  83 E10       30.05S
WATERTOWN      CLOUDY    41  36  82 E12       30.06S
HURON          CLOUDY    44  36  73 SE12      30.05S
SISSETON         N/A     39  36  89 S9        30.08F
ABERDEEN       FAIR      43  33  68 SE13      30.06R
MITCHELL       CLOUDY    43  37  79 E14       30.05S
PIERRE         FAIR      42  33  70 SE13      29.98F
MOBRIDGE       FAIR      45  32  60 SE10      29.95R
RAPID CITY     FAIR      41  37  86 SE3       29.94S
$$

  *****  SOME WEATHER IN NEARBY STATES *****

CITY           SKY/WX    TMP DP  RH WIND       PRES   REMARKS
GLASGOW MT     CLOUDY    49  33  54 SE6       29.80F
GREAT FALLS MT FAIR      50  34  54 SW18      29.78S
CHEYENNE WY    FAIR      44  29  55 SW3       29.97R
SCOTTSBLUFF NE FAIR      42  36  79 E7        29.95S
OMAHA NE       CLOUDY    43  38  82 NE23G36   29.81F
DES MOINES IA  TSTM      44  42  93 E20       29.88R FOG
DAVENPORT IA   CLOUDY    42  39  89 E23G30    29.95F
CHICAGO IL     LGT RAIN  44  38  79 NE13      30.08F
EAU CLAIRE WI  LGT RAIN  40  38  93 E9        30.15F
LA CROSSE WI   CLOUDY    42  37  82 E14G25    30.12F
$$

  *****  SOME NATIONAL WEATHER *****

CITY           SKY/WX    TMP DP  RH WIND       PRES   REMARKS
LA GUARDIA NY  FAIR      46  23  40 N17G26    30.23R
RALEIGH NC     FAIR      61  52  72 SE6       30.11R
ATLANTA GA     FAIR      74  59  59 S7        30.00R
NEW ORLEANS LA MOCLDY    74  69  85 SE14      29.90R
OKLAHOMA CITY  MOCLDY    49  41  74 W12       29.81R
ALBUQUERQUE NM MOCLDY    55  32  41 SE5       30.02R
SALT LAKE CITY MOCLDY    52  37  56 CALM      30.08F
LOS ANGELES CA FAIR      64  51  62 W12       30.00S
BOISE ID       LGT RAIN  51  47  86 E12       29.97F
SEATTLE WA     FAIR      47  41  80 SW20G28   29.93F
$$

*** WEATHER ACROSS MANITOBA...SASKATCHEWAN AND ONTARIO ***
                ***ONTARIO***

CITY           SKY/WX    TMP DP  RH WIND       PRES   REMARKS
GERALDTON      PTCLDY    28  19  69 E2        30.27S
THUNDER BAY    NOT AVBL
SIOUX LOOKOUT  CLOUDY    39  25  56 S10       30.11S
TORONTO        CLOUDY    41  25  52 E6        30.26F
BIG TROUT LK   CLOUDY    34  23  64 SE10      30.13F
PICKLE LAKE    NOT AVBL
DRYDEN         CLOUDY    41  27  56 S15       30.08S
KENORA         CLOUDY    45  30  57 S14       30.02F
$$
                *** MANITOBA***

CITY           SKY/WX    TMP DP  RH WIND       PRES   REMARKS
BRANDON        PTCLDY    37  37 100 SE6       29.85S
DAUPHIN        PTCLDY    34  34 100 N5        29.81F FOG
ISLAND LAKE    LGT RAIN  32  32 100 E8        29.98F WCI  25
PILOT MOUND      N/A     43  41  93 SW8         N/A
THE PAS        CLOUDY    34  30  86 E9        29.85F
THOMPSON       CLOUDY    37  21  52 E6        29.95F
WINNIPEG       LGT RAIN  48  45  87 S13       29.93S
LYNN LAKE      CLOUDY    36  27  69 E7        29.92S
CHURCHILL      PTCLDY    14  12  92 SE9       30.13S WCI   2
GILLAM         CLOUDY    36  21  55 E6        30.04F
$$
                ***SASKATCHEWAN***

CITY           SKY/WX    TMP DP  RH WIND       PRES   REMARKS
ESTEVAN        MOCLDY    43  34  70 S7        29.80F
KINDERSLEY     MOCLDY    45  32  61 S6        29.73S
LLOYDMINSTER   FOG       34  34 100 E6        29.76F VSB 1/8
PRINCE ALBERT  CLOUDY    36  32  87 N5        29.83R
REGINA         CLOUDY    46  30  53 VRB2      29.78S
YORKTON        CLEAR     39  37  93 S6        29.78R FOG
N. BATTLEFORD  PTCLDY    30 N/A N/A E5        29.80S
LA RONGE       FRZ DRZL  32  32 100 NE5       29.85S FOG
SASKATOON      MOCLDY    36  34  93 NE10      29.81R
SWIFT CURRENT  CLOUDY    45  27  49 S7        29.76S
$$
NOTE: THESE ARE AUTOMATED STATIONS WITH LIMITED QUALITY CONTROL
      "FAIR" INDICATES FEW OR NO CLOUDS BELOW 12,000 FEET WITH NO
      SIGNIFICANT WEATHER AND/OR OBSTRUCTIONS TO VISIBILITY.
      SKY/WX - SKY CONDITION AND SIGNIFICANT WEATHER.
      TMP - AIR TEMPERATURE.    DP   - DEWPOINT TEMPERATURE.
      RH  - RELATIVE HUMIDITY.  PRES - PRESSURE.
      HX  - HEAT INDEX.         WCI  - WIND CHILL INDEX.
$



USA.gov is the U.S. government's official web portal to all federal, state and local government web resources and services.